Wind_Speed
44 51 61 74 84 96 108 118 126 136 152 161 162 162 161 159 156 152 152 145 138 133 128 126 121 120 113 117 114 111 106 111 106 94 95 88 81 78
39 45 52 62 72 82 93 103 110 116 125 145 156 158 161 159 155 153 150 152 147 138 134 128 125 121 117 118 116 116 108 103 106 108 100 94 87 81
33 39 45 51 60 69 78 87 97 105 112 121 137 149 149 154 155 152 151 152 144 144 141 133 128 125 122 121 117 114 112 108 106 111 105 99 93 79
27 32 38 42 49 57 66 75 84 93 101 108 115 130 141 140 143 147 152 146 147 147 144 142 134 131 128 126 125 122 122 117 115 115 111 102 98 93
21 25 30 35 41 45 52 62 71 80 89 97 100 107 118 129 126 130 137 146 148 148 147 146 145 139 137 133 132 127 124 125 123 118 116 111 109 105
13 18 23 28 33 38 43 50 60 69 77 87 91 96 103 110 121 129 127 135 145 150 151 150 150 148 142 137 135 131 129 127 126 124 117 109 112 109
8 11 16 22 27 31 35 40 48 56 65 74 81 84 89 95 103 115 127 133 138 147 151 152 151 145 147 144 142 139 139 133 129 129 125 111 117 119
7 5 8 13 20 24 27 31 38 45 53 62 68 75 79 87 93 100 110 119 128 129 144 152 151 150 150 150 151 146 141 136 133 133 131 130 128 128
11 5 3 5 10 14 16 20 26 34 42 49 57 63 70 75 81 84 91 99 108 118 128 142 150 152 153 152 153 156 148 145 142 138 136 133 132 130
13 8 5 4 6 9 12 15 19 24 31 37 44 50 58 63 69 75 81 87 95 106 119 125 136 146 151 152 154 154 154 152 149 143 140 135 135 132
16 13 11 8 5 8 10 11 13 17 20 24 30 37 43 49 57 64 72 77 83 91 103 118 129 138 146 147 151 150 154 154 154 153 150 148 146 140
20 17 16 13 10 11 10 10 11 14 15 18 20 24 31 39 44 52 59 66 71 77 89 101 120 131 138 140 147 151 156 155 157 154 152 152 149 146
24 21 19 16 14 13 14 14 13 11 12 14 17 21 25 31 36 41 47 52 59 67 75 85 96 114 122 127 142 146 144 147 154 156 154 152 147 146
23 24 23 23 21 19 16 12 11 13 14 15 17 21 21 23 26 31 38 45 51 57 64 71 79 94 105 114 127 132 141 141 148 150 151 148 140 136
25 24 24 24 22 20 19 17 11 8 7 8 10 14 19 21 22 27 33 37 43 49 56 64 71 80 88 99 114 127 127 138 139 139 142 144 141 135
30 27 25 23 22 21 18 17 16 12 7 5 6 9 13 16 21 25 28 34 38 41 45 52 59 65 72 80 91 107 114 126 134 135 139 140 142 138
40 36 32 26 23 21 19 18 17 15 14 12 7 7 7 9 13 17 22 26 29 33 36 41 45 50 57 66 75 82 92 103 115 121 120 120 123 130
53 47 43 37 31 26 21 19 17 17 17 16 16 14 10 8 7 10 14 16 21 27 32 36 40 44 49 55 61 67 71 78 90 102 104 104 109 109
57 53 49 46 42 38 33 27 23 19 16 15 17 16 15 15 12 10 9 11 13 18 24 28 33 38 43 46 51 57 63 69 72 77 83 89 95 98
65 62 57 52 50 47 44 41 36 31 26 22 19 15 14 13 12 12 11 12 12 14 16 18 21 27 33 38 42 46 51 56 60 65 72 77 80 81
76 73 65 61 58 53 49 47 45 42 38 35 31 26 21 16 13 11 9 8 7 8 9 12 15 18 21 25 29 32 37 43 48 51 55 59 62 64
82 80 78 75 70 65 61 58 55 51 47 43 39 35 31 28 25 22 19 15 11 8 5 5 7 10 14 18 23 26 30 34 37 40 43 45 47 50
88 87 86 83 79 75 72 68 64 60 57 52 49 46 42 39 36 33 28 25 23 19 14 11 8 6 5 7 10 14 18 24 28 31 34 36 38 39
Wind_Direction
241 238 235 232 231 231 230 231 233 233 234 234 235 236 235 235 233 232 230 227 226 229 229 232 233 235 236 237 238 239 240 239 237 239 247 250 249 252
241 238 236 233 232 230 230 232 232 232 233 233 234 234 235 235 235 233 232 230 228 223 228 229 230 233 235 237 239 240 239 235 240 240 243 248 249 247
247 241 237 235 233 231 231 230 230 231 232 233 232 233 235 236 235 234 233 233 232 231 225 226 228 229 232 234 236 236 240 237 235 240 243 244 247 244
243 243 239 236 235 233 230 229 229 230 231 232 232 233 234 235 235 234 234 235 236 234 230 226 227 228 228 231 235 235 239 236 236 243 243 243 244 244
248 239 239 237 235 233 232 229 228 228 229 232 232 233 232 232 232 233 234 236 234 233 233 230 226 225 229 231 232 234 237 237 239 242 246 243 245 244
257 245 240 237 233 231 231 229 227 226 226 229 231 231 231 229 229 231 231 232 232 233 233 233 231 227 226 229 231 233 233 237 239 241 241 244 242 245
271 245 242 238 233 231 231 228 226 226 227 227 229 230 231 231 230 231 233 232 231 231 233 232 233 230 230 227 230 233 233 237 237 238 242 240 239 245
333 277 245 241 236 228 225 225 224 224 225 227 228 228 228 229 230 229 229 229 229 230 230 231 230 230 230 229 230 232 235 236 233 237 239 240 241 244
15 358 325 254 227 221 221 226 225 222 222 224 226 227 228 228 228 229 228 227 226 224 225 227 231 230 231 231 231 231 232 235 238 239 238 240 241 243
41 40 68 127 174 197 201 202 207 215 219 223 225 226 226 226 226 227 227 226 226 225 223 223 226 229 232 233 233 233 234 234 236 237 241 241 243 245
44 55 68 80 128 163 176 175 185 193 203 215 222 224 226 227 226 224 225 225 225 225 226 223 222 226 230 232 232 233 235 236 237 240 240 241 244 245
50 54 66 74 95 115 126 145 166 175 188 196 204 211 215 220 224 225 224 223 224 223 223 225 222 222 226 229 232 232 235 237 238 240 243 244 246 247
53 52 64 79 87 103 118 126 133 147 165 179 189 196 205 212 213 218 221 221 223 224 222 222 222 223 226 226 231 232 235 237 238 240 242 244 245 247
60 61 65 71 80 87 90 101 125 139 150 163 177 185 197 205 211 215 216 217 219 221 222 223 223 224 225 227 230 232 234 236 239 239 241 245 245 248
58 62 64 66 71 78 79 80 84 103 126 153 173 185 189 190 198 207 213 215 216 217 220 221 221 224 226 227 228 232 232 234 238 242 244 246 248 250
61 57 56 60 60 66 67 76 85 83 83 133 166 185 196 199 199 198 205 212 213 217 218 221 224 222 225 227 228 230 231 233 237 239 242 245 247 250
64 63 63 62 62 61 60 60 68 75 74 78 102 144 163 181 199 204 204 203 208 211 215 219 222 225 226 228 229 232 232 232 235 238 240 242 244 249
60 59 59 60 63 64 66 68 68 71 74 77 77 82 97 117 150 192 201 208 209 209 212 214 215 217 220 222 226 228 231 233 234 238 241 242 243 245
59 58 59 62 66 69 72 75 77 76 75 79 85 88 96 97 100 113 143 175 195 209 214 218 219 221 224 228 227 227 227 227 230 233 235 237 240 242
59 58 59 59 59 61 63 66 71 75 80 85 90 91 90 93 102 113 128 146 166 187 196 209 222 227 229 231 232 232 234 236 236 237 239 241 243 243
61 61 62 61 62 63 64 65 64 64 67 72 77 82 86 90 90 88 94 103 124 151 176 199 210 217 223 226 229 230 234 236 239 241 242 244 246 247
60 62 63 63 63 64 64 64 65 66 66 67 67 67 68 70 74 77 81 86 88 92 113 161 187 200 209 216 224 228 232 236 238 238 238 239 239 240
60 61 61 61 62 64 66 67 67 67 68 69 70 69 69 68 69 67 66 68 73 75 84 95 115 144 180 203 215 221 222 225 230 234 237 240 241 242
Height
10162 10166 10172 10180 10190 10201 10213 10228 10244 10262 10288 10307 10325 10341 10362 10386 10411 10434 10460 10481 10499 10518 10537 10554 10573 10586 10599 10609 10620 10633 10646 10651 10662 10667 10675 10683 10688 10692
10147 10150 10154 10160 10167 10178 10191 10204 10220 10235 10255 10275 10290 10306 10327 10354 10380 10408 10429 10451 10473 10492 10510 10531 10547 10564 10578 10588 10596 10607 10622 10631 10639 10649 10657 10664 10673 10680
10136 10138 10140 10145 10151 10159 10170 10181 10195 10208 10227 10240 10260 10275 10297 10320 10347 10375 10400 10420 10443 10470 10491 10507 10526 10541 10552 10566 10577 10587 10595 10608 10617 10625 10638 10649 10657 10666
10124 10126 10129 10133 10137 10145 10153 10162 10174 10188 10201 10211 10228 10247 10270 10287 10315 10345 10369 10393 10423 10444 10463 10486 10500 10514 10529 10540 10555 10569 10575 10585 10597 10606 10619 10635 10643 10649
10115 10115 10118 10121 10124 10131 10140 10148 10157 10168 10181 10190 10206 10223 10242 10264 10290 10314 10344 10374 10397 10411 10433 10454 10472 10488 10504 10517 10529 10547 10555 10564 10577 10586 10598 10611 10625 10628
10107 10107 10108 10111 10115 10120 10126 10134 10143 10153 10164 10171 10184 10200 10219 10240 10261 10281 10306 10331 10355 10377 10400 10423 10443 10464 10480 10491 10508 10523 10530 10541 10553 10564 10578 10587 10598 10606
10102 10102 10103 10105 10107 10112 10118 10124 10131 10140 10150 10159 10169 10185 10200 10215 10233 10253 10274 10296 10319 10342 10364 10387 10419 10450 10456 10471 10476 10488 10503 10519 10534 10546 10555 10567 10580 10585
10099 10099 10099 10100 10103 10106 10110 10116 10123 10131 10140 10148 10158 10170 10185 10198 10212 10229 10247 10261 10285 10323 10340 10359 10385 10405 10424 10438 10448 10461 10473 10487 10508 10518 10530 10543 10556 10563
10099 10098 10098 10099 10101 10105 10109 10114 10119 10125 10131 10139 10148 10158 10169 10182 10198 10216 10228 10245 10264 10280 10302 10326 10352 10375 10385 10403 10421 10435 10450 10466 10479 10490 10503 10516 10529 10537
10100 10098 10097 10098 10099 10102 10105 10108 10114 10120 10126 10134 10142 10151 10160 10172 10184 10195 10208 10221 10237 10255 10272 10297 10319 10342 10357 10379 10395 10414 10428 10442 10453 10465 10477 10489 10499 10509
10102 10101 10099 10098 10100 10101 10104 10107 10111 10115 10121 10127 10136 10144 10153 10162 10171 10180 10190 10204 10219 10236 10252 10270 10290 10313 10326 10343 10366 10387 10400 10413 10426 10437 10450 10460 10469 10480
10108 10105 10103 10102 10103 10104 10106 10109 10110 10113 10118 10124 10130 10137 10143 10149 10158 10168 10179 10190 10205 10220 10229 10247 10269 10277 10295 10318 10337 10356 10370 10382 10393 10412 10422 10433 10441 10451
10116 10112 10110 10109 10108 10108 10108 10110 10112 10116 10118 10123 10126 10131 10137 10142 10150 10158 10167 10179 10191 10203 10217 10229 10248 10262 10275 10299 10304 10323 10345 10359 10368 10378 10391 10399 10416 10421
10124 10121 10118 10115 10113 10113 10113 10114 10115 10116 10118 10121 10124 10128 10133 10140 10146 10153 10160 10170 10178 10189 10202 10215 10229 10241 10256 10273 10284 10306 10320 10336 10344 10353 10365 10377 10390 10405
10132 10129 10126 10124 10121 10119 10118 10119 10120 10122 10124 10126 10129 10132 10135 10139 10145 10150 10154 10162 10171 10181 10192 10203 10213 10223 10238 10250 10262 10270 10299 10310 10319 10335 10351 10360 10372 10390
10141 10138 10135 10132 10130 10128 10128 10127 10126 10128 10129 10131 10134 10138 10140 10143 10146 10150 10153 10159 10166 10175 10185 10194 10203 10215 10224 10234 10244 10254 10275 10288 10300 10315 10326 10339 10351 10357
10151 10148 10145 10142 10139 10138 10136 10135 10135 10134 10135 10136 10138 10140 10143 10146 10149 10152 10155 10159 10165 10172 10180 10188 10195 10205 10214 10223 10232 10243 10256 10270 10281 10293 10307 10320 10331 10332
10158 10158 10155 10152 10149 10146 10144 10143 10143 10143 10143 10144 10145 10146 10148 10149 10151 10154 10158 10162 10167 10172 10176 10180 10185 10192 10201 10209 10219 10230 10241 10253 10264 10273 10283 10297 10308 10316
10175 10172 10168 10165 10161 10158 10156 10154 10152 10151 10150 10150 10151 10151 10152 10153 10154 10156 10159 10163 10168 10173 10177 10182 10187 10192 10197 10203 10211 10220 10227 10237 10246 10255 10262 10271 10281 10290
10195 10188 10183 10177 10172 10168 10165 10163 10162 10160 10159 10158 10157 10158 10158 10159 10160 10162 10163 10165 10168 10172 10176 10180 10185 10190 10196 10202 10209 10217 10224 10231 10238 10245 10251 10258 10263 10272
10216 10208 10201 10194 10189 10185 10181 10177 10173 10171 10169 10168 10167 10167 10166 10166 10166 10167 10169 10171 10174 10177 10179 10181 10184 10188 10193 10198 10203 10208 10214 10220 10225 10231 10238 10244 10250 10256
10240 10231 10223 10216 10209 10202 10197 10192 10188 10186 10183 10181 10179 10178 10177 10177 10176 10177 10177 10177 10178 10179 10180 10182 10184 10187 10191 10195 10199 10203 10207 10211 10215 10219 10224 10228 10233 10239
10264 10253 10244 10237 10232 10226 10221 10215 10210 10206 10203 10200 10196 10193 10191 10188 10186 10184 10182 10182 10182 10183 10184 10185 10186 10187 10190 10193 10196 10198 10201 10205 10209 10212 10216 10220 10224 10229